This is the latest recevied weather packets stored in our database for station/object I1SXT-13. If no packets are shown the sender has not sent any weather packets the latest 10 day(s).
| Time | Temp. | Humidity | Pressure | Rain* | Wind** | Luminosity | Snow |
|---|---|---|---|---|---|---|---|
| 1777616666 | 12.78° C | 56% | 1026 hPa | 0 mm | - | - | - |
| 1777616369 | 12.22° C | 56% | 1026.5 hPa | 0 mm | - | - | - |
| 1777616065 | 11.67° C | 57% | 1025.6 hPa | 0 mm | - | - | - |
| 1777615768 | 11.67° C | 58% | 1026.6 hPa | 0 mm | - | - | - |
| 1777615464 | 11.67° C | 56% | 1026.1 hPa | 0 mm | - | - | - |
| 1777615166 | 11.67° C | 57% | 1025.9 hPa | 0 mm | - | - | - |
| 1777614869 | 11.67° C | 56% | 1026.4 hPa | 0 mm | - | - | - |
| 1777614268 | 12.22° C | 51% | 1025.9 hPa | 0 mm | - | - | - |
| 1777613964 | 12.78° C | 47% | 1026.1 hPa | 0 mm | - | - | - |
| 1777613667 | 11.67° C | 50% | 1025.8 hPa | 0 mm | - | - | - |
| 1777613370 | 11.67° C | 48% | 1026 hPa | 0 mm | - | - | - |
| 1777613066 | 12.22° C | 47% | 1025.9 hPa | 0 mm | - | - | - |
| 1777612769 | 12.78° C | 45% | 1026.1 hPa | 0 mm | - | - | - |
| 1777612465 | 12.78° C | 41% | 1026.2 hPa | 0 mm | - | - | - |
| 1777612167 | 12.78° C | 38% | 1025.9 hPa | 0 mm | - | - | - |
| 1777611863 | 12.78° C | 41% | 1026.1 hPa | 0 mm | - | - | - |
| 1777611566 | 12.78° C | 41% | 1025.7 hPa | 0 mm | - | - | - |
| 1777611269 | 12.78° C | 37% | 1026.4 hPa | 0 mm | - | - | - |
| 1777610965 | 12.78° C | 39% | 1025.6 hPa | 0 mm | - | - | - |
| 1777610364 | 12.78° C | 41% | 1025.7 hPa | 0 mm | - | - | - |
| 1777610067 | 12.22° C | 38% | 1025.6 hPa | 0 mm | - | - | - |
| 1777609770 | 12.22° C | 40% | 1025.9 hPa | 0 mm | - | - | - |
| 1777609168 | 11.67° C | 44% | 1025.1 hPa | 0 mm | - | - | - |
| 1777608270 | 11.67° C | 44% | 1024.2 hPa | 0 mm | - | - | - |
| 1777607966 | 11.67° C | 46% | 1025 hPa | 0 mm | - | - | - |
* Rain since midnight (hover to see other rain measurements)
** Current wind speed in m/s (hover to see current wind gust speed)